Terminal Aerodrome Forecast
Issued by NWS

Home | Current Version | Previous Version | Text Only | Print | Product List | Glossary On
Versions: 1 2 3 4 5 6 7 8 9 10 11 12 13 14
000
FTUS41 KBTV 011127
TAFSLK
TAF
KSLK 011127Z 0112/0212 VRB02KT P6SM OVC100
     FM011400 20005KT P6SM OVC060
     FM011700 21008KT 1 1/2SM -SN BR OVC015
     FM020600 25006KT 1 1/2SM -SN BR OVC015=

USA.gov is the U.S. government's official web portal to all federal, state and local government web resources and services.